Tracking 35275 objects as of 9-Sep-2026
HD Live streaming from Space Station
objects crossing your sky now

STARLINK-3738

Track STARLINK-3738 now!
10-day predictions
STARLINK-3738 is classified as:


NORAD ID: 52117
Int'l Code: 2022-029AF
Launch date: March 19, 2022
Source: United States (US)
Launch site: AIR FORCE EASTERN TEST RANGE (AFETR)
Your satellite tracking list
Your tracking list is empty




NASA's NSSDC Master Catalog

Two Line Element Set (TLE):
1 52117U 22029AF  26251.89338040  .00000897  00000-0  37687-4 0  9991
2 52117  53.1602 323.6200 0001102  66.4450 293.6668 15.34396350248632
Source of the keplerian elements: AFSPC